Terminal Aerodrome Forecast
Issued by NWS

Home | Current Version | Previous Version | Text Only | Print | Product List | Glossary On
Versions: 1 2 3 4 5 6 7 8 9 10 11 12 13
000
FTUS41 KBTV 041136
TAFRUT
TAF
KRUT 041136Z 0412/0512 14006KT P6SM FEW250
     FM041400 21009KT P6SM FEW070 FEW250
     FM041700 22012G20KT P6SM FEW070 SCT200
     FM042200 20010KT P6SM BKN070
     FM050200 15006KT P6SM OVC070
     FM050600 27006KT 6SM -RA OVC035
      AMD LTD TO CLD VIS AND WIND=

USA.gov is the U.S. government's official web portal to all federal, state and local government web resources and services.